Total_Precipitation_Accumulation
1.52 1.71 1.94 2.19 2.26 2.22 2.10 1.98 1.79 1.47 0.98 0.68 0.43 0.29 0.23 0.19 0.17 0.18 0.17 0.20 0.23 0.29 0.35 0.30 0.33 0.30 0.25 0.25 0.27 0.31 0.31 0.29 0.29 0.30 0.25 0.22 0.23 0.23 0.19 0.19 0.25 0.33 0.43
1.08 1.11 1.23 1.49 1.43 1.41 1.41 1.34 1.21 0.93 0.60 0.44 0.32 0.26 0.20 0.13 0.10 0.09 0.10 0.10 0.12 0.17 0.24 0.31 0.25 0.26 0.26 0.26 0.25 0.27 0.25 0.22 0.25 0.28 0.26 0.19 0.17 0.19 0.13 0.21 0.25 0.29 0.43
0.68 0.64 0.72 0.83 1.02 1.25 1.14 0.96 0.89 0.70 0.48 0.34 0.26 0.21 0.18 0.15 0.12 0.09 0.08 0.08 0.07 0.09 0.14 0.21 0.24 0.27 0.25 0.28 0.33 0.30 0.27 0.21 0.19 0.24 0.30 0.23 0.17 0.19 0.19 0.23 0.25 0.30 0.42
0.37 0.43 0.45 0.50 0.67 0.82 0.82 0.78 0.74 0.64 0.43 0.31 0.21 0.16 0.14 0.12 0.10 0.08 0.07 0.07 0.06 0.07 0.08 0.10 0.15 0.22 0.26 0.34 0.26 0.29 0.30 0.26 0.19 0.20 0.21 0.21 0.21 0.22 0.22 0.25 0.24 0.29 0.36
0.16 0.25 0.30 0.35 0.39 0.44 0.55 0.62 0.72 0.70 0.48 0.34 0.23 0.19 0.15 0.12 0.09 0.08 0.09 0.09 0.10 0.11 0.12 0.12 0.11 0.12 0.19 0.26 0.29 0.35 0.32 0.32 0.27 0.22 0.19 0.20 0.18 0.18 0.17 0.19 0.23 0.23 0.19
0.09 0.15 0.19 0.23 0.29 0.33 0.37 0.44 0.56 0.63 0.50 0.37 0.28 0.26 0.24 0.20 0.17 0.14 0.14 0.15 0.18 0.20 0.19 0.20 0.20 0.20 0.18 0.17 0.19 0.24 0.30 0.35 0.36 0.28 0.22 0.24 0.21 0.16 0.14 0.11 0.12 0.19 0.14
0.05 0.08 0.11 0.13 0.20 0.24 0.24 0.25 0.35 0.42 0.36 0.29 0.26 0.26 0.33 0.37 0.36 0.30 0.25 0.22 0.21 0.23 0.23 0.23 0.24 0.27 0.28 0.25 0.20 0.16 0.20 0.28 0.33 0.31 0.27 0.23 0.18 0.18 0.20 0.15 0.09 0.10 0.09
0.02 0.03 0.05 0.09 0.13 0.15 0.17 0.18 0.25 0.29 0.25 0.20 0.20 0.18 0.20 0.24 0.31 0.37 0.33 0.32 0.33 0.28 0.23 0.22 0.22 0.26 0.30 0.31 0.28 0.22 0.20 0.22 0.26 0.29 0.34 0.29 0.15 0.15 0.20 0.20 0.20 0.16 0.12
0.01 0.01 0.02 0.05 0.07 0.07 0.11 0.12 0.18 0.22 0.19 0.16 0.14 0.11 0.10 0.10 0.13 0.16 0.17 0.22 0.32 0.32 0.24 0.20 0.19 0.22 0.25 0.30 0.31 0.30 0.29 0.27 0.24 0.28 0.35 0.34 0.24 0.17 0.15 0.21 0.26 0.29 0.23
0.01 0.01 0.01 0.03 0.05 0.06 0.09 0.12 0.15 0.16 0.15 0.14 0.11 0.08 0.10 0.09 0.10 0.09 0.07 0.08 0.12 0.16 0.16 0.16 0.16 0.17 0.19 0.23 0.29 0.34 0.40 0.42 0.38 0.34 0.35 0.37 0.35 0.32 0.24 0.23 0.26 0.30 0.30
0.02 0.02 0.02 0.03 0.03 0.05 0.08 0.10 0.13 0.13 0.10 0.10 0.11 0.09 0.09 0.08 0.09 0.08 0.06 0.06 0.06 0.06 0.06 0.08 0.10 0.11 0.12 0.16 0.21 0.27 0.38 0.52 0.59 0.57 0.50 0.45 0.44 0.43 0.37 0.34 0.30 0.30 0.33
0.03 0.03 0.03 0.03 0.03 0.06 0.09 0.10 0.11 0.11 0.09 0.10 0.12 0.11 0.12 0.12 0.11 0.10 0.08 0.09 0.08 0.07 0.07 0.08 0.09 0.08 0.07 0.09 0.13 0.19 0.26 0.37 0.53 0.69 0.73 0.63 0.56 0.51 0.43 0.39 0.37 0.35 0.39
0.03 0.04 0.06 0.08 0.06 0.07 0.10 0.13 0.16 0.15 0.13 0.13 0.15 0.16 0.17 0.17 0.17 0.17 0.17 0.19 0.17 0.15 0.13 0.13 0.14 0.13 0.12 0.12 0.13 0.14 0.15 0.20 0.29 0.46 0.66 0.75 0.72 0.60 0.52 0.46 0.41 0.40 0.40
0.04 0.05 0.06 0.10 0.10 0.09 0.13 0.16 0.19 0.21 0.23 0.26 0.31 0.31 0.29 0.30 0.31 0.27 0.25 0.27 0.29 0.27 0.26 0.27 0.27 0.24 0.22 0.21 0.22 0.22 0.21 0.21 0.21 0.27 0.38 0.55 0.71 0.69 0.62 0.53 0.47 0.47 0.49
0.06 0.07 0.10 0.12 0.15 0.17 0.18 0.23 0.31 0.35 0.43 0.51 0.52 0.47 0.40 0.38 0.38 0.39 0.40 0.42 0.45 0.47 0.50 0.46 0.40 0.39 0.36 0.31 0.34 0.39 0.37 0.36 0.31 0.27 0.28 0.32 0.46 0.61 0.67 0.61 0.56 0.56 0.57
0.10 0.11 0.15 0.19 0.21 0.24 0.31 0.38 0.45 0.53 0.70 0.86 0.85 0.81 0.75 0.71 0.67 0.63 0.63 0.68 0.69 0.70 0.68 0.61 0.58 0.56 0.47 0.43 0.41 0.40 0.40 0.45 0.47 0.43 0.41 0.37 0.36 0.42 0.52 0.60 0.62 0.61 0.59
0.11 0.13 0.17 0.22 0.28 0.33 0.38 0.46 0.54 0.61 0.67 0.73 0.73 0.76 0.78 0.78 0.78 0.77 0.77 0.77 0.78 0.78 0.77 0.76 0.74 0.72 0.70 0.60 0.49 0.40 0.41 0.45 0.51 0.57 0.57 0.42 0.31 0.38 0.44 0.52 0.55 0.55 0.52
0.12 0.14 0.17 0.21 0.27 0.34 0.40 0.48 0.50 0.50 0.53 0.54 0.54 0.50 0.51 0.52 0.53 0.58 0.64 0.68 0.74 0.75 0.75 0.71 0.63 0.60 0.57 0.52 0.45 0.41 0.45 0.48 0.47 0.55 0.62 0.56 0.47 0.44 0.47 0.47 0.44 0.43 0.41
0.14 0.14 0.15 0.18 0.22 0.25 0.27 0.30 0.32 0.33 0.35 0.35 0.38 0.34 0.35 0.37 0.39 0.46 0.55 0.66 0.70 0.66 0.60 0.57 0.57 0.58 0.56 0.53 0.43 0.40 0.46 0.50 0.46 0.48 0.52 0.56 0.53 0.44 0.36 0.40 0.35 0.33 0.34
0.12 0.11 0.11 0.12 0.13 0.14 0.16 0.18 0.22 0.25 0.29 0.30 0.31 0.32 0.33 0.36 0.39 0.42 0.46 0.49 0.52 0.51 0.49 0.46 0.48 0.53 0.56 0.55 0.42 0.39 0.45 0.49 0.48 0.51 0.57 0.60 0.55 0.43 0.32 0.37 0.41 0.35 0.31
0.10 0.08 0.08 0.08 0.10 0.11 0.13 0.16 0.17 0.19 0.20 0.22 0.24 0.25 0.27 0.31 0.33 0.36 0.38 0.41 0.43 0.43 0.41 0.38 0.41 0.46 0.47 0.43 0.31 0.28 0.36 0.43 0.46 0.46 0.49 0.59 0.54 0.41 0.29 0.32 0.36 0.31 0.32
0.07 0.07 0.07 0.07 0.09 0.11 0.14 0.16 0.16 0.16 0.16 0.18 0.21 0.23 0.26 0.28 0.30 0.34 0.35 0.34 0.34 0.32 0.32 0.33 0.34 0.40 0.44 0.35 0.26 0.18 0.21 0.31 0.39 0.49 0.53 0.60 0.58 0.44 0.35 0.31 0.30 0.25 0.23
0.05 0.05 0.05 0.06 0.08 0.11 0.13 0.17 0.17 0.17 0.18 0.21 0.22 0.23 0.24 0.27 0.31 0.35 0.36 0.37 0.37 0.36 0.33 0.30 0.27 0.29 0.38 0.37 0.19 0.14 0.13 0.21 0.34 0.55 0.70 0.74 0.70 0.60 0.49 0.42 0.40 0.31 0.26
0.03 0.04 0.05 0.06 0.07 0.08 0.11 0.15 0.17 0.19 0.21 0.22 0.21 0.21 0.21 0.21 0.25 0.32 0.36 0.37 0.37 0.36 0.33 0.31 0.31 0.31 0.36 0.37 0.32 0.25 0.17 0.17 0.26 0.47 0.66 0.79 0.85 0.81 0.70 0.61 0.55 0.41 0.34
0.03 0.03 0.04 0.06 0.07 0.07 0.09 0.11 0.14 0.19 0.22 0.22 0.21 0.20 0.18 0.19 0.22 0.27 0.29 0.26 0.28 0.25 0.23 0.24 0.26 0.28 0.30 0.25 0.19 0.19 0.19 0.19 0.23 0.39 0.66 0.87 1.01 1.05 1.03 0.91 0.81 0.69 0.58
0.05 0.05 0.05 0.05 0.05 0.05 0.06 0.07 0.10 0.16 0.24 0.27 0.24 0.21 0.19 0.20 0.22 0.23 0.24 0.23 0.20 0.18 0.19 0.20 0.18 0.14 0.15 0.13 0.10 0.09 0.10 0.12 0.18 0.37 0.63 0.86 1.04 1.11 1.22 1.23 1.15 0.99 0.83